sat.trackr.live / text

‹ back to catalog

STARLINK-5062

NORAD 55637 · 2023-021K

PAYLOAD ACTIVE UNKNOWN

§ Identity

Operator
Country
US
Launch date
2023-02-17
Launch site
AFWTR
Launch vehicle
Mass (kg)
RCS (m²)

Purposes: comms

External: N2YO · Heavens-Above · Gunter

§ Orbital elements

Epoch: 2026-05-25T00:42:52.230816Z

Period
96.11 min
Inclination
69.9997°
Eccentricity
0.0003041
Mean motion
14.98340924 rev/d
Perigee alt
569.9 km
Apogee alt
574.1 km
Semi-major
6,950.2 km
B*
4.7420e-5
RAAN
352.0878°
Arg perigee
265.0578°
Mean anomaly
95.0234°
Rev number
18,022

§ Raw data

STARLINK-50621 55637U 23021K   26145.02977119  .00000473  00000+0  47420-4 0  99922 55637  69.9997 352.0878 0003041 265.0578  95.0234 14.98340924180221

JSON: /api/v1/satellites/55637 · /tle

For live sub-satellite position, see the globe view (requires WebGL).

§ Visibility from observer

Set your observer location to see the next 7 days of passes ≥ 10°. The values pass through the URL so the page stays shareable.

No JS? Fill the form by hand. The geolocation button needs JavaScript.